Regional Weather Roundup
Issued by NWS Sioux Falls, SD

Home | Current Version | Previous Version | Graphics & Text | Print | Product List | Glossary Off
Versions: 1 2 3 4 5 6 7 8 9 10 11 12 13 14 15 16 17 18 19 20 21 22 23 24 25 26 27 28 29 30 31 32 33 34 35 36 37 38 39 40 41 42 43 44 45 46 47 48 49 50

000
ASUS43 KFSD 050502
RWRFSD

WEATHER ROUNDUP FOR SE SOUTH DAKOTA/SW MINNESOTA/NW IOWA
NATIONAL WEATHER SERVICE SIOUX FALLS SD
1100 PM CST WED MAR 04 2015

NOTE: "FAIR" INDICATES FEW OR NO CLOUDS BELOW 12,000 FEET WITH NO
SIGNIFICANT WEATHER AND OR OBSTRUCTIONS TO VISIBILITY.


SDZ038>040-050-052>070-050600-
SOUTHEAST SOUTH DAKOTA

CITY           SKY/WX    TMP DP  RH WIND       PRES   REMARKS
CHAMBERLAIN    NOT AVBL
HURON          CLEAR     -7 -13  75 CALM      30.46R
MADISON        FAIR      -6  -9  84 NW3       30.41R
MITCHELL       CLEAR     -1  -7  75 CALM      30.48R
SIOUX FALLS    CLEAR     -3  -9  75 W3        30.45R
WINNER         FAIR       1 -10  60 S5        30.38S WCI  -9
YANKTON        CLEAR      1  -6  71 N3        30.48F
$$

MNZ071-072-080-081-089-090-097-098-050600-
SOUTHWEST MINNESOTA

CITY           SKY/WX    TMP DP  RH WIND       PRES   REMARKS
FAIRMONT       CLEAR      0  -9  65 NW10      30.40F WCI -17
JACKSON        CLEAR     -4 -11  71 NW7       30.41F WCI -18
LUVERNE        CLEAR     -2  -9  71 NW5       30.45S WCI -12
MARSHALL       CLEAR     -6 -15  65 W8        30.46R WCI -21
MONTEVIDEO     CLEAR     -6 -11  77 NW3       30.47R
PIPESTONE      PTCLDY    -8 -13  77 NW5       30.40S WCI -19
REDWOOD FALLS  FAIR      -4  -9  79 W7        30.47R WCI -18
TRACY          CLEAR     -5 -12  71 W6        30.45S WCI -17
WINDOM         CLEAR     -6 -11  77 W3        30.42F
WORTHINGTON    CLEAR     -6 -13  71 NW8       30.42F WCI -21
$$

IAZ001>003-012>014-020>022-031-032-NEZ013-014-SDZ071-050600-
NORTHWEST IOWA

CITY           SKY/WX    TMP DP  RH WIND       PRES   REMARKS
DENISON        CLEAR      3  -6  66 N6        30.44R WCI  -8
ESTHERVILLE    CLEAR     -1  -8  72 NW10      30.41F WCI -17
SIOUX CITY     CLEAR      6  -5  60 N8        30.48R WCI  -7
SPENCER        CLEAR     -2  -9  72 NW5       30.43S WCI -12
$$

ABBREVIATIONS USED IN REMARKS
   TC - TEMPERATURE IN CELSIUS
  WCI - WIND CHILL INDEX
   HX - HEAT INDEX
  VSB - VISIBILITY




USA.gov is the U.S. government's official web portal to all federal, state and local government web resources and services.